Probability
6 8 11 14 17 16 13 11 11 11 11 12 11 10 8 5 1 0 1 0 1 2 2 1 0 0 0 0 0 0 0 0 0 0 0 0 0 0 0 0 0 0 0
10 12 15 18 20 18 15 12 10 9 9 10 9 9 8 6 3 2 1 1 0 1 2 2 1 0 0 0 0 0 0 0 0 0 0 0 0 0 0 0 0 0 0
17 19 22 23 23 21 19 14 10 8 7 7 7 7 7 7 6 4 2 1 1 1 1 2 2 1 1 1 1 1 0 0 0 0 0 0 0 0 0 0 0 0 0
24 27 29 29 27 24 22 18 13 10 8 7 7 7 6 5 6 5 3 2 2 2 1 2 2 2 1 2 2 2 1 0 0 0 0 0 0 0 0 0 0 0 0
29 31 34 34 31 26 23 20 17 14 12 10 9 8 6 5 4 4 4 3 3 3 2 1 1 2 1 1 2 2 1 0 0 0 0 0 0 0 0 0 0 0 0
30 32 35 37 34 29 25 22 19 17 14 12 10 9 8 6 5 5 4 4 3 3 2 1 0 1 1 1 2 2 2 1 0 0 0 0 0 0 0 0 0 0 0
26 29 33 35 34 31 28 25 21 18 16 12 11 9 8 7 7 7 6 4 3 3 2 1 1 0 1 2 1 2 2 1 0 0 0 0 0 0 0 0 0 0 0
19 22 26 28 29 28 27 24 21 19 16 13 12 10 8 7 8 8 6 4 3 3 2 2 2 1 1 1 1 2 2 1 0 0 0 0 0 0 0 0 0 0 0
14 15 16 17 19 19 20 20 19 17 16 14 12 10 8 7 7 8 7 6 5 3 2 1 2 3 2 2 2 1 1 0 0 0 0 0 0 0 1 1 0 0 0
10 11 11 10 10 10 12 14 14 14 14 12 11 9 8 7 7 8 8 7 6 5 3 2 2 4 5 4 2 1 0 0 0 0 0 0 0 0 1 1 0 0 0
8 8 8 7 6 6 7 8 9 10 10 9 8 7 6 7 8 9 8 7 6 6 5 4 4 4 5 4 2 0 1 2 1 0 0 0 0 0 1 1 0 0 0
6 6 5 5 5 5 5 4 4 5 5 5 5 5 5 6 6 7 6 5 5 6 7 8 7 5 4 4 3 2 2 3 2 1 0 0 0 0 1 1 1 0 0
5 5 4 3 3 3 3 1 1 1 2 2 2 3 3 3 3 3 3 3 4 6 8 9 9 7 5 4 3 4 3 3 3 2 1 0 0 0 1 2 1 0 0
6 5 4 4 3 2 1 0 0 0 0 0 1 1 1 1 1 0 1 1 3 5 8 9 9 8 7 4 3 3 3 3 3 3 2 1 0 2 3 3 1 0 0
6 6 6 5 4 1 0 0 0 0 0 0 0 0 0 0 0 0 0 0 1 4 7 9 9 9 8 6 4 3 2 1 2 3 2 1 1 4 6 5 2 0 0
6 6 6 4 3 1 0 0 0 0 0 0 0 0 0 0 0 0 0 0 0 2 6 8 8 9 8 7 4 3 2 1 1 1 1 1 1 4 6 6 4 2 0
6 6 5 3 1 0 0 0 0 0 0 0 0 0 0 0 0 0 0 0 0 1 3 6 7 7 7 6 4 3 3 2 1 1 1 0 1 2 3 5 5 3 1
3 3 3 1 0 0 0 0 0 0 0 0 0 0 0 0 0 0 0 0 0 0 1 3 4 4 4 3 3 3 3 3 3 2 1 1 1 1 1 2 4 3 3
1 1 1 0 0 0 0 0 0 0 0 0 0 0 0 0 0 0 0 0 0 0 0 1 2 2 1 1 2 2 2 3 3 2 1 1 2 1 0 0 1 2 2
0 0 0 0 0 0 0 0 0 0 0 0 0 0 0 0 0 0 0 0 0 0 0 0 0 0 0 0 1 1 1 1 2 2 1 2 2 1 0 0 0 1 1
0 0 0 0 0 0 0 0 0 0 0 0 0 0 0 0 0 0 0 0 0 0 0 0 0 0 0 0 0 0 0 0 1 1 1 2 2 1 0 0 0 0 0
0 0 0 0 0 0 0 0 0 0 0 0 0 0 0 0 0 0 0 0 0 0 0 0 0 0 0 0 0 0 0 0 0 0 1 2 2 1 0 0 0 0 0
0 0 0 0 0 0 0 0 0 0 0 0 0 0 0 0 0 0 0 0 0 0 0 0 0 0 0 0 0 0 0 0 0 0 1 2 2 1 0 0 0 0 0
0 0 0 0 0 0 0 0 0 0 0 0 0 0 0 0 0 0 0 0 0 0 0 0 0 0 0 0 0 0 0 0 0 0 0 1 1 0 0 0 0 0 0
0 0 0 0 0 0 0 0 0 0 0 0 0 0 0 0 0 0 0 0 0 0 0 0 0 0 0 0 0 0 0 0 0 0 0 0 0 0 0 0 0 0 0
0 0 0 0 0 0 0 0 0 0 0 0 0 0 0 0 0 0 0 0 0 0 0 0 0 0 0 0 0 0 0 0 0 0 0 0 0 0 0 0 0 0 0
Wind_Speed
3 4 9 9 9 9 9 9 9 8 8 8 8 8 8 8 8 8 8 7 7 7 8 8 8 9 9 9 10 10 10 10 10 10 10 9 10 11 11 11 9 6 11
5 5 9 9 9 9 8 8 8 7 7 7 7 7 6 6 6 6 6 6 6 6 7 7 7 8 8 8 8 8 9 9 9 9 8 7 8 9 10 9 9 6 10
7 6 8 9 8 8 8 7 7 7 6 6 6 5 5 5 5 5 5 5 5 5 6 6 6 6 7 6 6 7 7 7 8 7 6 3 5 8 9 8 8 9 9
7 6 7 8 8 8 8 7 6 6 5 5 4 4 4 4 4 4 4 4 4 4 5 5 5 6 6 5 5 5 5 5 6 5 3 2 3 7 8 8 8 9 8
6 6 7 8 8 8 7 7 6 5 4 4 4 3 3 3 3 3 3 3 3 3 4 4 4 5 5 4 4 4 4 4 4 3 2 2 2 6 7 7 8 8 8
6 5 6 8 8 7 7 6 6 5 4 4 3 2 2 2 3 3 2 2 3 3 3 4 4 4 4 4 4 3 2 3 3 2 2 2 2 5 6 7 7 7 7
6 5 6 8 8 7 7 6 5 4 4 3 3 2 2 2 2 2 2 2 3 3 3 4 4 4 4 4 4 3 1 2 2 2 3 3 3 7 7 7 7 6 6
7 6 5 8 8 7 6 5 4 4 3 3 2 2 2 2 1 1 2 2 3 4 4 4 5 5 5 5 4 4 2 2 2 3 3 3 6 7 7 7 7 7 6
6 6 5 4 5 6 6 5 4 4 3 3 2 2 2 2 1 0 1 2 3 4 4 5 5 6 6 6 5 4 3 3 2 2 4 4 7 9 8 7 7 7 7
6 5 5 4 4 3 3 5 5 4 4 3 3 3 2 1 1 1 1 2 3 3 4 4 6 6 7 6 6 5 4 3 2 3 3 4 9 10 9 8 8 8 7
6 4 4 4 4 3 3 4 4 4 4 3 3 3 2 1 1 1 1 2 2 3 4 5 6 6 6 6 7 6 5 2 3 3 3 7 10 11 10 9 9 8 8
4 4 4 4 4 3 3 3 2 2 2 2 1 1 1 1 1 1 2 2 3 3 4 5 5 5 4 3 4 5 3 3 3 3 4 9 12 12 11 11 10 10 9
3 3 3 3 3 3 2 2 2 2 2 2 2 2 1 1 1 1 1 1 2 2 2 3 3 3 3 3 3 3 4 4 3 3 5 10 12 13 12 12 11 11 10
4 3 3 3 4 3 3 2 2 2 2 2 3 3 1 1 1 1 1 1 1 1 1 1 1 2 3 4 4 5 5 4 4 4 5 10 11 12 13 12 12 12 12
4 3 3 3 4 3 3 2 3 2 2 2 2 2 2 1 1 1 1 1 1 1 1 2 2 2 3 4 4 5 6 6 6 5 4 10 11 12 13 13 13 13 13
3 3 2 3 3 4 3 3 2 2 2 2 2 2 2 1 1 1 2 1 2 2 2 2 3 3 3 3 5 5 6 6 6 6 5 6 11 11 12 14 14 13 13
4 3 2 2 3 4 3 3 2 2 2 2 2 3 3 2 2 1 1 2 2 2 2 2 2 2 3 3 4 5 5 5 5 6 6 5 6 9 11 12 12 12 13
4 3 2 2 3 3 3 2 2 2 2 2 2 3 3 3 3 2 2 2 2 2 2 2 2 2 3 3 3 4 4 4 5 6 5 5 4 5 8 11 11 12 11
4 4 2 2 2 2 2 2 2 2 2 2 2 3 3 4 4 2 2 2 3 2 2 2 2 2 2 3 3 3 3 3 4 4 5 5 5 5 4 7 10 10 10
4 3 3 2 1 1 2 2 2 2 2 2 2 2 3 3 4 3 2 3 2 2 2 2 2 2 2 2 3 3 3 3 3 3 4 4 4 5 5 5 5 6 9
3 3 2 1 0 1 1 1 1 1 2 2 2 3 3 3 4 3 3 3 2 2 2 3 2 2 2 2 1 2 3 3 3 3 3 3 4 5 4 5 4 4 4
3 3 2 1 1 0 0 0 0 1 1 1 2 3 3 3 4 3 3 3 3 2 3 3 2 2 2 1 0 1 2 3 2 3 2 3 4 3 4 4 4 4 4
4 4 3 3 2 1 0 1 1 1 1 2 2 3 3 3 3 3 3 3 3 2 2 3 2 2 2 2 1 2 1 3 2 2 2 2 2 2 3 3 4 4 4
5 3 3 3 2 1 1 1 1 0 1 2 2 2 4 4 4 3 3 3 3 3 3 3 2 2 3 3 2 2 3 2 2 2 2 2 2 3 3 2 3 4 4
4 4 3 2 2 1 1 1 1 1 2 2 2 3 4 3 4 4 3 3 3 3 3 3 3 3 3 3 2 2 2 2 2 3 3 2 2 2 3 3 3 3 3
3 3 3 3 2 2 2 1 2 2 2 2 3 3 3 3 3 4 4 3 3 3 3 3 3 3 3 3 3 2 2 2 2 2 3 3 3 3 3 2 2 2 2
Wind_Direction
168 164 140 131 122 115 111 109 104 100 100 102 102 102 106 106 106 105 105 111 112 114 114 112 109 107 108 106 103 101 100 98 97 94 90 90 93 96 97 91 86 80 89
158 155 138 132 125 119 114 110 105 100 98 102 105 104 106 109 113 111 111 113 116 116 117 117 115 113 110 109 110 109 108 105 103 96 87 86 93 97 99 98 94 93 91
140 143 135 128 124 121 116 112 109 106 102 101 106 110 109 108 109 114 115 116 116 122 122 118 122 122 119 115 117 119 117 113 111 104 96 86 98 105 104 102 104 100 96
133 134 130 124 121 120 117 114 113 110 108 105 106 115 119 117 115 114 120 123 120 123 127 125 125 132 129 127 126 127 125 124 122 117 109 108 111 116 113 112 110 108 102
119 123 126 121 119 116 113 110 109 108 108 109 107 113 126 132 124 125 126 123 125 126 132 135 134 143 142 143 143 137 132 132 125 116 124 125 123 129 123 122 117 114 109
107 115 121 114 114 111 108 106 105 106 105 104 104 106 124 138 143 134 129 127 130 139 154 159 158 159 161 164 168 163 151 137 126 122 145 152 148 145 141 136 131 126 122
104 107 116 106 106 107 102 98 100 101 100 97 92 92 112 139 156 157 146 153 166 172 181 186 184 184 186 189 196 196 170 154 146 156 167 170 174 163 160 154 148 142 138
104 96 95 96 94 95 97 92 89 86 81 87 79 73 75 75 78 186 176 189 192 195 201 206 203 204 206 211 216 218 203 189 177 172 177 184 187 176 170 167 164 162 155
92 89 82 83 82 81 78 78 77 68 62 67 56 49 50 46 32 3 207 207 208 211 214 219 217 215 215 219 227 231 220 204 185 192 193 192 192 185 181 179 178 175 170
79 80 77 72 69 67 66 66 57 51 50 52 42 37 30 19 6 356 289 243 228 226 229 232 228 223 223 224 232 237 225 211 204 214 205 203 199 194 190 188 188 187 184
68 62 66 62 54 51 52 48 44 40 33 27 25 24 22 1 320 284 292 281 257 246 239 239 238 232 228 228 234 240 227 207 213 220 211 212 202 201 198 195 193 195 194
77 60 58 59 52 47 45 38 26 26 19 9 2 6 3 348 324 326 304 286 280 270 260 251 247 238 230 229 237 239 227 214 216 226 222 218 211 209 207 202 200 201 200
103 73 49 57 53 48 41 37 27 19 14 4 358 353 353 354 340 339 323 292 283 279 272 269 255 240 229 225 228 231 229 218 220 224 227 222 218 216 212 208 207 207 207
98 77 53 51 54 46 43 35 37 30 19 8 354 3 12 2 351 336 317 296 275 268 268 268 256 249 240 235 231 233 235 226 219 219 226 223 221 220 216 213 213 214 214
101 78 54 51 50 42 38 27 34 26 17 7 360 2 14 10 342 329 317 314 299 280 258 254 253 255 249 245 243 240 242 236 226 219 223 222 220 222 221 220 218 218 219
116 96 66 58 49 45 42 34 23 16 13 13 3 354 6 2 338 329 324 323 310 294 272 248 248 248 250 247 248 244 244 239 231 226 221 222 222 222 223 223 222 221 223
130 114 91 81 54 45 36 27 23 12 17 13 357 351 360 357 342 335 330 320 305 302 294 278 266 259 259 257 255 250 243 241 235 230 221 217 219 220 221 222 222 222 224
131 123 105 82 67 52 37 19 18 18 22 10 356 353 354 354 351 347 336 314 307 309 299 282 270 267 265 262 259 257 250 245 239 233 222 215 214 215 220 223 223 225 227
142 136 117 93 77 56 41 23 18 23 27 8 1 356 352 352 352 347 328 312 315 315 304 293 283 265 268 274 265 259 254 248 243 235 222 215 213 214 216 223 223 224 225
140 132 123 106 81 57 42 28 22 25 17 7 359 349 352 350 349 348 331 324 329 323 314 305 289 283 264 274 278 275 264 256 245 233 227 224 215 213 213 218 217 223 226
137 133 136 125 66 54 48 34 17 355 344 347 343 352 351 347 348 349 332 330 334 319 306 306 291 295 289 296 300 298 285 259 245 240 231 224 224 216 209 219 219 217 223
163 162 162 174 176 57 86 183 201 260 297 303 327 347 345 345 344 340 331 321 320 313 321 319 302 292 288 298 248 291 295 299 278 254 238 227 233 226 217 221 221 222 222
182 184 181 192 192 209 175 75 33 19 352 342 341 336 332 334 334 327 324 318 314 304 297 297 297 271 271 273 228 213 222 250 291 283 253 238 243 240 238 231 226 228 224
193 189 187 189 193 206 164 136 153 207 270 279 299 304 316 323 323 323 319 316 308 297 291 287 284 271 257 262 270 252 244 235 242 290 289 268 255 245 244 249 238 235 227
185 183 191 191 200 204 188 186 195 244 257 283 301 309 316 318 320 318 314 313 309 302 297 290 286 274 259 250 251 261 262 265 241 241 266 278 280 262 257 247 238 236 235
179 180 185 186 205 212 208 213 206 231 264 291 305 311 313 314 321 323 319 315 309 303 295 290 281 276 267 256 251 243 239 244 242 242 250 263 269 270 268 249 242 241 242